Location: Unspecified
(0.0000°N, 0.0000°E)
Time: 07:17:16
(UTC+00:00)

ISS - Visible Passes

Search period start: 17 February 2020 00:00
Search period end: 27 February 2020 00:00
Orbit: 416 x 423 km, 51.6° (Epoch: 17 February)

Date Brightness Start Highest point End Pass type
(mag) Time Alt. Az. Time Alt. Az. Time Alt. Az.
17 Feb -1.2 04:40:33 10° S 04:43:14 22° SE 04:45:54 10° ENE visible
18 Feb -2.6 05:30:04 13° WSW 05:32:17 25° NW 05:35:05 10° N visible
19 Feb -1.9 04:46:41 22° NNE 04:46:41 22° NNE 04:48:03 10° NNE visible
